Location: Hengforden
(52.3167°N, 6.1333°E)
Time: 16:36:25
(UTC+00:00)

Cosmos 546 - Pass Details

Date: 14 June 2025
Orbit: 470 x 491 km, 50.6° (Epoch: 19 July)

Event Time Altitude Azimuth Distance (km) Brightness Sun altitude
Rises 22:18:04 0° 257° (WSW) 2,556 8.3 -12.5°
Reaches altitude 10° 22:20:14 10° 255° (WSW) 1,678 7.3 -12.6°
Maximum altitude 22:24:01 66° 173° (S) 539 4.5 -12.8°
Drops below altitude 10° 22:27:48 10° 91° (E) 1,687 7.1 -12.9°
Sets 22:30:00 0° 89° (E) 2,570 8.1 -13.0°
